Tracking 22879 objects as of 21-Apr-2021
HD Live streaming from Space Station
objects crossing your sky now

STARLINK-2374

Track STARLINK-2374 now!
10-day predictions
STARLINK-2374 is classified as:


NORAD ID: 47913
Int'l Code: 2021-021BF
Perigee: 356.2 km
Apogee: 357.5 km
Inclination: 53.1 °
Period: 91.5 minutes
Semi major axis: 6727 km
RCS: Unknown
Launch date: March 14, 2021
Source: United States (US)
Launch site: AIR FORCE EASTERN TEST RANGE (AFETR)
aabbcc
Your satellite tracking list
Your tracking list is empty




NASA's NSSDC Master Catalog

Two Line Element Set (TLE):
1 47913U 21021BF  21110.58335648 -.00007691  00000-0 -50376-4 0  9997
2 47913  53.0512  33.1600 0000948  82.5775 169.8045 15.73221840  1771
Source of the keplerian elements: AFSPC